{"data":{"norad_id":59782,"epoch":"2026-09-21T11:13:34.044096Z","epoch_age_seconds":87728,"freshness":"FRESH","line1":"1 59782U 24093A   26264.46775514 -.00000111  00000+0  54961-5 0  9991","line2":"2 59782  43.0011 180.0373 0000990 271.5960  88.4779 15.27578805132672","mean_motion":15.27578805,"eccentricity":9.9e-5,"inclination_deg":43.0011,"raan_deg":180.0373,"arg_perigee_deg":271.596,"mean_anomaly_deg":88.4779,"bstar":5.4961e-6,"rev_number":13267,"period_min":94.266822456993,"perigee_km":482.37341652413,"apogee_km":483.73193207964,"semimajor_km":6861.1896743019,"source":"CELESTRAK","updated_at":"2026-09-22T09:00:49.071060Z"}}